CW9688 Weather Reports


time (UTC)temp
C
wind
direction
speed
KPH
gust
KPH
rain 1hr
cm
rain 24hr
cm
rain mn
cm
humidity
%
barometer
mb
20260509175804 22 7 11.3 22.5 0.00 0.00 0.00 26 1008.3
20260509174805 21 43 12.9 22.5 0.00 0.00 0.00 26 1008.3
20260509173304 21 39 20.9 32.2 0.00 0.00 0.00 27 1007.5
20260509172805 21 33 16.1 24.1 0.00 0.00 0.00 28 1007.5
20260509172306 22 67 12.9 27.4 0.00 0.00 0.00 27 1007.5
20260509171305 22 40 12.9 29.0 0.00 0.00 0.00 26 1007.5
20260509170805 22 10 14.5 24.1 0.00 0.00 0.00 27 1007.5
20260509170304 22 46 9.7 24.1 0.00 0.00 0.00 22 1007.5
20260509165804 22 69 4.8 19.3 0.00 0.00 0.00 21 1007.5
20260509165306 22 7 11.3 19.3 0.00 0.00 0.00 21 1007.5
20260509164804 22 28 6.4 12.9 0.00 0.00 0.00 21 1007.5
20260509164305 22 65 8.0 11.3 0.00 0.00 0.00 21 1007.5
20260509163805 22 98 3.2 9.7 0.00 0.00 0.00 23 1007.5
20260509163305 22 27 3.2 9.7 0.00 0.00 0.00 21 1007.5
20260509162307 21 355 4.8 9.7 0.00 0.00 0.00 24 1007.5
20260509160805 21 120 3.2 8.0 0.00 0.00 0.00 25 1007.5
20260509160304 21 359 4.8 8.0 0.00 0.00 0.00 25 1007.5
20260509155805 21 88 6.4 8.0 0.00 0.00 0.00 24 1007.5
20260509154804 21 71 6.4 9.7 0.00 0.00 0.00 25 1007.5
20260509154304 20 351 4.8 9.7 0.00 0.00 0.00 25 1007.5
20260509152805 20 290 6.4 9.7 0.00 0.00 0.00 25 1007.5
20260509150805 19 295 3.2 8.0 0.00 0.00 0.00 29 1007.5
20260509150304 18 306 3.2 9.7 0.00 0.00 0.00 32 1007.5
20260509145805 18 5 3.2 9.7 0.00 0.00 0.00 35 1007.5
20260509145306 17 262 1.6 9.7 0.00 0.00 0.00 37 1007.5
20260509141304 15 156 4.8 8.0 0.00 0.00 0.00 50 1007.5
20260509140804 14 96 1.6 8.0 0.00 0.00 0.00 54 1007.5
20260509140304 13 77 3.2 8.0 0.00 0.00 0.00 54 1007.5
20260509135306 12 63 1.6 3.2 0.00 0.00 0.00 60 1007.5
20260509134805 12 63 1.6 3.2 0.00 0.00 0.00 58 1007.5
20260509134305 12 63 0.0 1.6 0.00 0.00 0.00 61 1007.5
20260509133305 12 63 1.6 4.8 0.00 0.00 0.00 59 1007.5
20260509131305 11 229 3.2 4.8 0.00 0.00 0.00 57 1007.5
20260509125804 10 170 4.8 8.0 0.00 0.00 0.00 65 1007.5
20260509123805 10 227 1.6 3.2 0.00 0.00 0.00 64 1007.5
20260509123304 9 227 3.2 4.8 0.00 0.00 0.00 65 1007.5
20260509122804 8 227 3.2 4.8 0.00 0.00 0.00 67 1007.5
20260509122306 8 274 3.2 4.8 0.00 0.00 0.00 68 1007.5
20260509121304 8 5 1.6 4.8 0.00 0.00 0.00 69 1007.5
20260509120805 8 5 0.0 3.2 0.00 0.00 0.00 72 1007.5
20260509115805 8 44 3.2 8.0 0.00 0.00 0.00 73 1007.5
20260509114304 8 197 1.6 3.2 0.00 0.00 0.00 71 1007.5
20260509113805 8 197 0.0 1.6 0.00 0.00 0.00 70 1007.5
20260509113305 8 197 3.2 4.8 0.00 0.00 0.00 71 1007.5
20260509112805 8 197 3.2 4.8 0.00 0.00 0.00 73 1007.5
20260509111805 8 197 3.2 4.8 0.00 0.00 0.00 73 1007.5
20260509110805 7 82 3.2 4.8 0.00 0.00 0.00 74 1007.5
20260509105306 8 70 3.2 4.8 0.00 0.00 0.00 73 1007.5
20260509104304 8 206 1.6 3.2 0.00 0.00 0.00 72 1007.5
20260509100805 8 211 3.2 4.8 0.00 0.00 0.00 74 1007.5
20260509100305 8 357 3.2 4.8 0.00 0.00 0.00 74 1007.5
20260509093804 10 184 1.6 3.2 0.00 0.00 0.00 69 1007.5
20260509093305 10 184 0.0 3.2 0.00 0.00 0.00 69 1007.5
20260509091804 10 184 3.2 4.8 0.00 0.00 0.00 67 1007.5
20260509091305 10 223 3.2 4.8 0.00 0.00 0.00 67 1007.5
20260509090304 11 243 1.6 3.2 0.00 0.00 0.00 66 1007.5
20260509082306 11 226 1.6 4.8 0.00 0.00 0.00 63 1007.5
20260509081304 11 265 3.2 4.8 0.00 0.00 0.00 62 1007.5
20260509074805 13 240 4.8 4.8 0.00 0.00 0.00 56 1007.5
20260509074305 13 213 4.8 9.7 0.00 0.00 0.00 56 1007.5
20260509073805 13 237 3.2 9.7 0.00 0.00 0.00 55 1007.5
20260509073304 13 212 8.0 14.5 0.00 0.00 0.00 55 1007.5
20260509072805 13 218 6.4 9.7 0.00 0.00 0.00 55 1007.5
20260509070805 13 184 9.7 22.5 0.00 0.00 0.00 54 1007.5
20260509070304 13 183 11.3 19.3 0.00 0.00 0.00 54 1007.5
20260509065306 13 175 11.3 16.1 0.00 0.00 0.00 55 1007.5
20260509064804 13 184 11.3 19.3 0.00 0.00 0.00 55 1007.5
20260509063304 13 198 9.7 16.1 0.00 0.00 0.00 54 1007.5
20260509061804 13 185 8.0 12.9 0.00 0.00 0.00 54 1007.5
20260509061304 13 175 4.8 9.7 0.00 0.00 0.00 54 1007.5
20260509060305 13 178 4.8 11.3 0.00 0.00 0.00 54 1007.5
20260509055804 13 164 3.2 8.0 0.00 0.00 0.00 54 1007.5
20260509055306 13 177 4.8 9.7 0.00 0.03 0.00 54 1007.5
20260509054804 13 163 3.2 9.7 0.00 0.03 0.00 53 1007.5
20260509054304 13 174 4.8 11.3 0.00 0.03 0.00 53 1007.5
20260509053804 13 186 4.8 11.3 0.00 0.03 0.00 53 1007.5
20260509052805 13 179 6.4 11.3 0.00 0.03 0.00 53 1007.5
20260509052307 13 177 8.0 11.3 0.00 0.03 0.00 52 1007.5
20260509051305 13 170 4.8 12.9 0.00 0.03 0.00 52 1007.5
20260509050804 13 159 4.8 9.7 0.00 0.03 0.00 51 1007.5
20260509045306 13 170 4.8 11.3 0.00 0.03 0.00 52 1007.5
20260509044805 13 164 8.0 9.7 0.00 0.03 0.00 53 1007.5
20260509043304 13 135 4.8 8.0 0.00 0.03 0.00 53 1007.5
20260509042804 13 133 1.6 4.8 0.00 0.03 0.00 53 1007.5
20260509042307 13 143 1.6 4.8 0.00 0.03 0.00 53 1007.5
20260509041804 13 173 3.2 4.8 0.00 0.03 0.00 52 1007.5
20260509041305 13 160 3.2 9.7 0.00 0.03 0.00 51 1007.5
20260509035804 14 171 3.2 8.0 0.00 0.03 0.00 51 1007.5
20260509033304 14 173 4.8 11.3 0.00 0.03 0.00 50 1007.5
20260509031804 15 145 4.8 9.7 0.00 0.03 0.00 48 1007.5
20260509030804 14 131 6.4 9.7 0.00 0.03 0.00 49 1007.5
20260509025306 15 108 1.6 4.8 0.00 0.03 0.00 46 1007.5
20260509022306 16 81 3.2 4.8 0.00 0.03 0.00 42 1007.5
20260509021804 16 86 1.6 8.0 0.00 0.03 0.00 42 1007.5
20260509020304 17 81 4.8 9.7 0.00 0.03 0.00 41 1007.5
20260509015804 17 98 8.0 11.3 0.00 0.03 0.00 40 1007.5
20260509015306 17 95 4.8 8.0 0.00 0.03 0.00 40 1007.5
20260509014804 17 72 3.2 12.9 0.00 0.03 0.00 39 1007.5
20260509013804 18 81 6.4 9.7 0.00 0.03 0.00 38 1007.5
20260509011804 18 82 8.0 11.3 0.00 0.03 0.00 37 1007.5
20260509011304 18 61 4.8 12.9 0.00 0.03 0.00 36 1007.5
20260509010304 19 53 8.0 11.3 0.00 0.03 0.00 36 1007.5
20260509005805 19 69 6.4 11.3 0.00 0.03 0.00 36 1007.5
20260509004304 20 52 8.0 19.3 0.00 0.03 0.00 36 1008.9
20260509003804 20 54 3.2 8.0 0.00 0.03 0.00 35 1008.9
20260509003304 20 165 4.8 11.3 0.00 0.03 0.00 35 1008.9
20260509002804 20 113 8.0 11.3 0.00 0.03 0.00 36 1008.9
20260509001804 20 80 9.7 19.3 0.00 0.03 0.00 36 1008.9
20260509001304 20 97 14.5 20.9 0.00 0.03 0.00 35 1008.9
20260509000305 20 66 4.8 12.9 0.00 0.03 0.00 35 1008.9
20260508234305 20 60 9.7 16.1 0.00 0.03 0.00 35 1008.9
20260508232804 20 58 11.3 19.3 0.00 0.03 0.00 37 1008.9
20260508232307 20 72 3.2 12.9 0.00 0.03 0.00 36 1008.9
20260508231804 20 56 11.3 19.3 0.00 0.03 0.00 36 1008.9
20260508225306 20 70 6.4 11.3 0.00 0.03 0.00 36 1008.9
20260508224804 20 67 8.0 16.1 0.00 0.03 0.00 39 1008.9
20260508224304 20 42 8.0 19.3 0.00 0.03 0.00 36 1008.9
20260508223804 20 13 9.7 16.1 0.00 0.03 0.00 36 1008.9
20260508223305 20 88 9.7 19.3 0.00 0.03 0.00 36 1008.9
20260508222805 20 7 4.8 16.1 0.00 0.03 0.00 36 1008.9
20260508221804 20 133 4.8 9.7 0.00 0.03 0.00 37 1008.9
20260508220804 20 94 12.9 20.9 0.00 0.03 0.00 37 1008.9
20260508220304 20 87 8.0 14.5 0.00 0.03 0.00 36 1008.9
20260508215804 21 62 11.3 19.3 0.00 0.03 0.00 36 1008.9
20260508215306 21 1 8.0 14.5 0.00 0.03 0.00 35 1008.9
20260508214304 20 335 4.8 9.7 0.00 0.03 0.00 37 1008.9
20260508212804 21 344 8.0 16.1 0.00 0.03 0.00 37 1008.9
20260508211304 21 8 6.4 12.9 0.00 0.03 0.00 38 1008.9
20260508210804 20 346 8.0 14.5 0.00 0.03 0.00 37 1008.9
20260508204804 20 0 6.4 16.1 0.00 0.03 0.00 37 1008.9
20260508204304 20 4 8.0 12.9 0.00 0.03 0.00 40 1008.9
20260508202805 20 2 4.8 14.5 0.00 0.03 0.00 39 1009.2
20260508202307 19 48 9.7 19.3 0.00 0.03 0.00 39 1009.2
20260508201804 20 29 3.2 14.5 0.00 0.03 0.00 39 1009.2
20260508201304 19 342 9.7 14.5 0.00 0.03 0.00 39 1009.2
20260508195306 18 42 8.0 11.3 0.00 0.03 0.00 39 1009.2
20260508194303 19 35 8.0 14.5 0.00 0.03 0.00 39 1009.2
20260508193304 19 329 8.0 16.1 0.00 0.03 0.00 41 1009.2
20260508192306 18 156 4.8 11.3 0.00 0.03 0.00 42 1009.2
20260508190804 18 0 12.9 19.3 0.00 0.03 0.00 45 1009.2
20260508184804 18 52 9.7 16.1 0.00 0.03 0.00 44 1009.2
20260508183804 17 0 9.7 19.3 0.00 0.03 0.00 47 1009.2
20260508183304 16 38 4.8 19.3 0.00 0.03 0.00 47 1009.2
20260508182804 17 34 8.0 19.3 0.00 0.03 0.00 44 1009.2
20260508182306 17 32 12.9 19.3 0.00 0.03 0.00 46 1009.2
20260508181304 16 52 11.3 16.1 0.00 0.03 0.00 46 1009.2